Retour au catalogue

ARIANE 44LP DEB

ActifHEO
NORAD 25928·DEBRIS·🇫🇷 France

Lancé Mar 2, 1991 depuis Guiana Space Centre

Loading…

Prochains Passages (prochaines 24 heures)

TLE

FraisSource: Space-Track

Époque: Sep 14, 2026, 04:11 UTC

1 25928U 91015J   26257.17493346 -.00000349  00000-0 -26778-2 0  9991
2 25928   7.7238 229.6966 6621691 178.8708 297.4227  2.92223370301787

Suivez ARIANE 44LP DEB en temps réel avec AllMySat

Download on the App Store